Preview of NWS' New Version of Forecast
This preview is not operational and should not be used for support decisions.

Regional Weather Roundup (RWR)

Issued by National Weather Service (NWS)

                            
000
ASUS43 KMKX 181510
RWRWI 

WISCONSIN REGIONAL WEATHER ROUNDUP
NATIONAL WEATHER SERVICE MILWAUKEE/SULLIVAN WI
1000 AM CDT THU APR 18 2019

NOTE: "FAIR" INDICATES FEW OR NO CLOUDS BELOW 12,000 FEET WITH NO
SIGNIFICANT WEATHER AND/OR OBSTRUCTIONS TO VISIBILITY.

WIZ001-002-006>008-014>016-023>028-181600-
NORTHWEST WISCONSIN
  
CITY           SKY/WX    TMP DP  RH WIND       PRES   REMARKS
SUPERIOR ARPT  DRIZZLE   40  38  91 N8        29.80R WCI  35          
ASHLAND        CLOUDY    39  37  92 N9        29.76R WCI  33          
HAYWARD        LGT RAIN  37  36  96 N7        29.76R FOG     WCI  32  
SIREN          CLOUDY    40  36  88 N8        29.80R WCI  34          
CUMBERLAND     CLOUDY    36  34  93 N12G17    29.77R WCI  27          
RICE LAKE      CLOUDY    38  31  74 NW9       29.77S WCI  32          
CHETEK         CLOUDY    38  35  89 NW8       29.76R WCI  32          
LADYSMITH      CLOUDY    39  36  89 N13G20    29.74R WCI  31          
EAU CLAIRE     CLOUDY    40  34  79 N15G21    29.73R WCI  32          
MENOMONIE      CLOUDY    37  32  82 NW16      29.76R WCI  27          
NEW RICHMOND   CLOUDY    41  35  79 N9G20     29.79R                  
OSCEOLA        CLOUDY    42  37  81 N14       29.83R                  
$$
 
WIZ003>005-009-010-017-018-181600-
NORTH CENTRAL WISCONSIN
  
CITY           SKY/WX    TMP DP  RH WIND       PRES   REMARKS
MANITOWISH WTR CLOUDY    35  35 100 N7        29.68R FOG     WCI  29  
ARBOR VITAE    CLOUDY    37  35  94 N9        29.67R WCI  30          
WOODRUFF       CLOUDY    37  35  94 N9        29.67R WCI  30          
RHINELANDER    CLOUDY    37  33  85 N6        29.64R FOG     WCI  32  
EAGLE RIVER    MIX PCPN  35  35 100 N8        29.63R WCI  28          
LAND O LAKES   CLOUDY    35  35 100 N12       29.66R FOG     WCI  27  
PHILLIPS       CLOUDY    35  35 100 N6        29.68S WCI  30          
TOMAHAWK       CLOUDY    35  33  93 N8        29.66R FOG     WCI  28  
MEDFORD        CLOUDY    34  33  95 N10G16    29.66S WCI  26          
MERRILL        CLOUDY    37  36  94 N6        29.65S WCI  33          
$$
 
WIZ029-030-035-036-043>047-181600-
CENTRAL WISCONSIN
  
CITY           SKY/WX    TMP DP  RH WIND       PRES   REMARKS
WAUSAU         CLOUDY    37  33  85 N10G21    29.62R WCI  30          
MOSINEE        CLOUDY    37  36  93 N10       29.64R WCI  30          
MARSHFIELD     CLOUDY    39  39 100 N15G21    29.65R WCI  31          
STEVENS POINT  CLOUDY    37  36  96 N13G20    29.64R WCI  28          
WAUPACA        CLOUDY    43  39  85 N9        29.62R                  
WAUTOMA        CLOUDY    41  37  87 NW10        N/A                   
WISC RAPIDS    CLOUDY    40  33  76 N15G21    29.65R WCI  32          
CAMP DOUGLAS   CLOUDY    40  40 100 NW10      29.67R WCI  33          
$$
 
WIZ011>013-019>022-031-037>040-048>050-181600-
NORTHEAST WISCONSIN
  
CITY           SKY/WX    TMP DP  RH WIND       PRES   REMARKS
ANTIGO         CLOUDY    35  34  95 N13       29.61S WCI  27          
SHAWANO        CLOUDY    41  39  93 NW9       29.60S                  
OCONTO         CLOUDY    39  36  89 N8        29.59R WCI  33          
STURGEON BAY   CLOUDY    38  36  92 NW12      29.58R WCI  30          
GREEN BAY      CLOUDY    41  37  86 NW7       29.59R                  
MANITOWOC      LGT RAIN  41  40  96 N10       29.59R FOG              
APPLETON       CLOUDY    39  39 100 N14       29.57S WCI  31          
CLINTONVILLE   CLOUDY    40  36  85 N12G17    29.60S WCI  33          
OSHKOSH        CLOUDY    42  39  89 N12       29.60R                  
$$
 
WIZ032>034-041-042-053>061-181600-
SOUTHWEST WISCONSIN
  
CITY           SKY/WX    TMP DP  RH WIND       PRES   REMARKS
LA CROSSE      CLOUDY    42  34  73 N18G24    29.71R                  
SPARTA         CLOUDY    38  35  89 N7        29.70R WCI  32          
VIROQUA        CLOUDY    39  39 100 NW17G23   29.69R WCI  29          
BOSCOBEL       CLOUDY    44  36  73 N12G20    29.70R                  
PRAIRIE DU CHI CLOUDY    43  37  77 NW10      29.71R                  
PLATTEVILLE    CLOUDY    44  42  95 NW14G20   29.67R                  
$$

WIZ056-057-062-063-064-067-068-181600-
SOUTH CENTRAL WISCONSIN
  
CITY           SKY/WX    TMP DP  RH WIND       PRES   REMARKS
REEDSBURG      CLOUDY    40  38  94 NW10      29.66R WCI  34          
BARABOO/DELLS  CLOUDY    40  37  87 NW9       29.64R WCI  34          
LONE ROCK      CLOUDY    43  38  82 W15G23    29.67R                  
MINERAL POINT  CLOUDY    45  45 100 NW14G23   29.66R                  
MADISON        CLOUDY    43  39  86 NW13G22   29.63R                  
MIDDLETON      CLOUDY    44  41  90 NW10G17   29.65R                  
WATERTOWN      CLOUDY    45  44  97 NW14G20   29.60R                  
MONROE         CLOUDY    45  42  90 MISG      29.63R                  
JANESVILLE     CLOUDY    48  48 100 NW10      29.60R                  
$$
 
WIZ051-052-058>065-066-070>072-181600-
SOUTHEAST WISCONSIN
  
CITY           SKY/WX    TMP DP  RH WIND       PRES   REMARKS
MILWAUKEE      CLOUDY    50  43  77 NW13      29.58R                  
WAUKESHA       CLOUDY    45  41  87 NW14      29.59R                  
MILWAUKEE/TIMM CLOUDY    46  39  76 W7        29.58R                  
RACINE         CLOUDY    50  44  80 NW8       29.61R                  
KENOSHA        CLOUDY    51  48  89 NW9       29.59R                  
FOND DU LAC    CLOUDY    42  40  92 NW15      29.60R                  
SHEBOYGAN      CLOUDY    46  42  86 NW9       29.57R                  
WEST BEND      DRIZZLE   43  41  93 NW13      29.59R                  
JUNEAU         CLOUDY    42  40  91 NW10G18   29.61R                  
$$

LSZ147-162-181600-
LAKE SUPERIOR
  
STATION/POSITION TIME  TEMP    WIND        PRES    WAVE
                       AIR SEA DIR/SP/G            HT/PER
                 (UTC) (F)     (DEG/KT/KT) (MB)    (FT/S)
$$
 
LMZ867-665-643>646-181600-
LAKE MICHIGAN
  
STATION/POSITION TIME  TEMP    WIND        PRES    WAVE
                       AIR SEA DIR/SP/G            HT/PER
                 (UTC) (F)     (DEG/KT/KT) (MB)    (FT/S)
NORTHPORT PIER   1440   37     290/  5/  7 1001.4R
KEWAUNEE LAKESHO 1436   39     330/  8/ 13 1000.6R
SHEBOYGAN LAKESH 1500   44     360/ 13/ 15 1001.8R
KENOSHA   LAKESH 1500   50     330/ 10/ 13 1002.7
$$

TC  - TEMPERATURE IN CELSIUS
VSB - VISIBILITY IN STATUTE MILES
WCI - WIND CHILL INDEX
HX  - HEAT INDEX